Dewpoint
71 72 72 72 72 72 71 71 71 70 70 70 69 69 69 69 69 69 69 69 69 69 69 70 70 70 70 70 70 69 69 69 69 69 69 69 69 69 69 69 69 69 69 69 68 68 67 66 65 64 64 64 65 65 64 64 64 63 62 62 62 61 60 62 63 63 64 64 64 63 63 63 63 63 63 63 63 64 64 65 65 66 66 66 66 66 66 66 66 66 66 65 65 64 64 64 63 63 63 62 62 62 63
71 72 72 72 72 71 71 71 70 70 70 69 69 69 68 68 68 68 69 69 69 69 69 70 70 70 70 70 70 69 69 69 69 69 69 69 69 69 69 69 69 69 69 69 68 67 67 65 64 64 64 64 64 64 63 63 63 63 62 62 62 61 61 63 63 63 64 64 64 64 63 63 63 63 63 63 63 63 64 64 65 65 65 66 66 66 66 66 66 66 65 65 65 64 64 64 63 63 63 62 62 62 63
71 71 72 71 71 71 71 70 70 70 69 69 69 68 68 68 68 68 68 69 69 69 70 70 70 70 70 70 70 69 69 69 69 69 69 69 69 69 69 69 69 69 69 68 68 67 66 65 64 63 63 63 63 63 63 62 62 62 62 62 62 62 62 63 63 63 63 64 64 64 63 63 63 63 63 63 63 63 63 64 64 64 65 65 65 65 65 65 65 65 65 65 65 64 64 64 63 63 63 62 62 62 63
71 71 71 71 71 71 70 70 70 69 69 68 68 68 68 68 68 68 68 69 69 69 70 70 70 70 70 70 69 69 69 69 69 69 69 69 69 69 69 69 69 69 68 68 67 67 65 65 64 63 63 63 63 63 63 62 62 62 62 63 63 63 63 63 63 63 63 63 64 64 64 63 63 63 63 63 63 63 63 63 63 63 64 64 64 64 64 64 65 65 64 64 64 64 64 64 63 63 63 62 62 62 63
71 71 71 71 71 71 70 70 69 69 68 68 68 68 68 68 68 68 68 69 69 69 70 70 70 70 70 70 69 69 69 69 69 69 69 69 69 69 69 69 69 68 68 67 67 66 65 64 63 63 63 63 63 63 63 63 63 63 63 63 63 63 64 64 64 63 63 63 63 64 64 63 63 63 63 63 63 63 63 63 63 63 63 63 63 63 63 63 64 64 64 64 64 63 63 63 63 63 62 62 62 62 63
70 70 71 71 71 70 70 69 69 68 68 68 68 68 68 68 68 68 68 68 69 69 69 70 70 70 70 70 69 69 69 69 69 69 69 69 69 69 69 69 68 68 67 67 66 66 65 64 63 63 63 63 63 63 63 63 63 63 63 63 63 63 64 64 64 63 63 63 63 63 64 63 63 63 63 63 63 63 63 63 63 63 63 63 63 63 63 63 63 63 63 63 63 63 63 63 62 62 62 62 62 62 63
70 70 70 70 70 70 70 69 69 68 68 68 68 68 68 68 68 68 68 68 69 69 69 70 70 70 70 70 69 69 69 69 69 69 69 69 69 69 69 68 68 68 67 66 66 65 65 63 63 63 63 63 63 63 63 63 63 63 63 63 63 64 65 64 64 64 63 63 63 63 63 63 63 63 63 63 63 63 63 63 63 63 63 63 62 62 62 62 62 62 62 62 62 62 62 62 62 61 61 61 62 62 63
69 70 70 70 70 70 69 69 68 68 68 68 68 68 68 68 68 68 68 68 68 69 69 69 70 70 70 70 69 69 69 68 68 69 69 69 69 69 68 68 68 67 67 66 66 65 65 63 63 63 63 63 63 63 63 62 62 63 63 63 63 64 64 64 64 64 64 64 64 63 63 63 63 63 63 63 63 63 63 63 63 63 63 63 62 62 62 61 61 61 61 62 62 62 61 61 61 61 61 62 62 63 63
69 70 70 70 70 70 69 69 68 68 68 68 68 68 68 68 68 68 68 68 68 68 69 69 69 69 69 69 69 69 68 68 68 68 69 69 68 68 68 68 67 67 66 66 65 65 64 63 63 63 63 63 63 63 63 62 62 63 63 63 63 63 64 64 64 64 64 64 64 64 64 64 63 63 63 63 63 63 63 62 62 62 62 63 62 62 62 61 61 60 60 61 61 61 61 61 61 61 62 62 63 63 63
69 69 70 70 70 70 69 69 68 68 68 68 68 68 68 68 68 68 68 68 68 68 68 68 69 69 69 69 69 68 68 68 68 68 68 68 68 68 68 67 67 66 66 66 65 64 64 63 63 63 63 63 63 63 63 63 63 63 63 64 64 64 64 64 64 64 64 64 64 64 64 64 64 63 63 63 63 63 63 63 62 62 62 62 62 62 62 61 61 60 60 61 60 60 60 60 61 61 62 63 63 63 64
69 69 70 70 70 70 69 69 68 68 68 68 68 68 68 68 68 68 68 68 68 68 68 68 68 68 68 68 68 68 68 68 68 68 68 68 68 68 67 67 67 66 66 65 65 64 63 63 62 62 62 63 63 63 63 63 63 63 64 64 64 64 64 64 64 64 64 64 64 64 64 64 64 63 63 63 63 63 63 63 63 62 62 62 62 62 62 61 61 61 61 61 61 60 60 60 61 62 63 63 63 64 64
69 69 70 70 70 69 69 69 68 68 68 68 68 68 68 68 68 68 67 67 67 67 68 68 68 68 68 68 68 68 68 68 68 68 68 68 67 67 67 67 66 66 65 65 64 63 63 62 62 62 62 63 63 63 63 63 63 63 64 64 64 64 64 64 64 64 64 64 64 64 64 64 64 63 63 63 63 63 63 63 63 62 62 62 62 62 61 61 61 61 61 61 61 61 60 60 61 62 63 63 63 63 63
69 69 69 69 69 69 69 69 68 68 68 68 68 68 68 68 68 67 67 67 67 67 67 67 67 67 68 68 68 68 68 68 67 67 67 67 67 67 67 66 66 65 65 64 63 63 62 62 62 62 62 63 63 63 63 63 64 64 66 65 64 64 64 64 64 64 64 64 64 64 63 63 63 63 63 63 63 63 63 63 63 63 62 62 62 62 61 61 61 61 61 61 61 61 60 61 61 62 63 63 63 63 62
69 69 68 69 69 69 69 69 69 68 68 68 68 68 68 68 68 67 67 67 67 67 67 67 67 67 67 67 67 67 67 67 67 67 67 67 67 66 66 66 65 65 64 63 62 61 61 61 62 62 61 62 62 63 63 63 64 65 66 65 64 64 64 64 64 64 64 64 63 63 63 63 63 63 63 63 63 63 63 63 63 63 63 62 62 62 62 61 61 61 61 61 62 61 61 61 61 62 62 62 62 62 61
68 68 68 68 69 69 69 69 69 69 69 68 68 68 68 68 68 67 67 67 67 67 67 67 66 66 66 66 66 66 66 66 66 66 66 66 66 66 66 65 65 64 63 61 60 60 61 61 62 62 61 61 61 62 63 63 64 66 67 65 65 64 64 64 64 64 64 64 63 63 63 63 63 63 63 63 63 63 63 63 63 63 63 62 62 62 62 61 61 61 61 61 61 62 61 61 61 61 61 61 61 61 60
67 67 67 68 69 69 69 69 69 69 69 69 69 68 68 68 68 67 67 67 67 66 66 66 66 66 66 65 65 65 65 65 65 65 65 66 66 66 65 65 64 63 62 60 59 59 60 61 61 62 61 61 61 61 62 63 64 66 68 66 65 64 64 64 64 64 64 64 63 63 63 63 63 63 63 63 63 63 63 63 63 63 63 63 62 62 62 61 61 61 61 61 61 61 62 62 61 61 61 61 61 60 60
65 66 68 68 69 69 69 69 69 69 69 69 69 69 68 68 68 68 68 67 67 67 66 66 66 65 64 64 63 63 63 63 63 63 64 65 65 65 64 63 63 61 60 59 58 58 59 60 61 61 61 61 61 61 62 62 64 66 67 66 65 64 64 64 64 64 64 64 63 63 63 63 63 63 63 63 63 63 63 63 63 63 63 63 62 62 62 62 61 61 61 60 61 61 62 62 62 62 61 61 61 60 60
66 67 68 68 69 69 69 69 70 70 70 69 69 69 69 68 68 68 68 68 67 67 67 66 66 65 64 63 61 60 59 59 59 60 61 62 63 62 62 61 60 59 59 58 57 56 58 59 60 60 61 62 61 61 62 62 64 66 67 66 65 65 64 64 64 64 64 64 63 63 63 63 63 63 63 63 63 63 63 63 62 62 62 62 62 62 62 62 62 61 61 60 60 61 61 62 62 62 62 61 61 60 60
67 68 68 68 69 69 69 69 69 70 69 69 69 69 69 68 68 68 68 68 67 67 67 66 65 64 63 61 59 57 55 55 54 54 55 56 57 57 57 56 56 57 58 56 56 56 57 59 59 60 61 61 61 60 62 63 64 66 67 67 66 65 64 64 63 63 63 63 63 63 63 63 63 63 63 63 63 63 63 62 62 62 62 62 62 62 62 62 62 61 61 60 60 60 60 61 61 62 62 61 61 61 60
67 68 68 68 68 69 69 69 69 69 69 68 68 68 68 68 68 68 67 67 67 66 66 65 64 63 62 59 57 55 54 53 51 50 50 50 51 51 51 51 52 53 54 54 55 56 57 58 59 60 60 60 61 61 63 63 64 65 67 67 66 66 65 64 64 63 63 63 63 63 63 63 63 63 63 63 63 63 63 62 62 62 62 62 62 61 61 61 61 61 61 61 60 60 60 60 61 61 61 61 61 60 60
67 68 68 68 68 68 68 68 68 68 68 67 67 66 66 66 66 66 66 66 65 65 64 63 62 60 60 58 57 55 54 53 51 50 49 49 49 49 49 49 50 50 51 52 54 56 57 57 58 59 59 60 60 61 63 63 64 65 67 67 67 66 65 64 64 63 63 63 63 63 63 63 64 64 64 63 63 63 63 62 62 62 62 61 61 61 61 61 61 61 61 61 60 60 60 60 60 60 60 60 60 60 60
66 67 67 67 66 66 66 66 66 66 66 65 65 64 64 64 64 64 64 63 63 63 63 62 61 59 59 59 58 56 55 54 53 51 50 50 50 49 49 49 49 49 49 50 52 54 55 55 56 57 58 59 59 60 61 63 63 64 66 67 67 66 65 64 64 63 63 63 63 63 63 63 64 64 64 64 63 63 63 62 62 62 61 61 61 61 61 61 61 61 61 60 60 60 60 60 60 60 60 60 60 60 60
66 66 66 66 65 65 65 65 66 65 65 64 64 63 63 63 63 63 63 62 62 62 62 61 60 59 59 59 59 58 57 56 54 53 52 51 50 50 50 50 50 49 48 49 50 52 54 54 55 56 57 58 59 59 60 62 63 64 65 66 67 66 66 65 64 63 63 63 63 63 63 63 63 64 64 63 63 63 63 62 62 62 61 61 61 61 61 61 61 61 61 60 60 60 60 60 60 60 59 59 59 59 60
66 66 65 65 65 65 65 65 65 65 65 64 63 63 63 63 62 62 62 61 61 61 61 60 60 59 59 59 58 58 57 57 56 55 54 53 52 52 52 51 51 50 49 49 49 50 52 53 54 55 56 57 58 58 60 61 62 63 64 65 66 66 66 65 64 63 63 63 62 62 63 63 63 63 63 63 63 63 63 62 62 62 62 61 61 61 61 61 60 60 60 60 60 60 60 60 60 60 59 59 59 59 60
65 65 65 65 65 65 65 65 64 64 64 64 63 63 62 62 62 62 62 61 61 60 60 59 59 58 58 58 57 57 56 56 56 56 55 55 54 54 53 53 52 51 50 49 49 49 50 51 52 53 54 55 56 57 59 60 61 63 63 65 65 66 66 65 64 63 63 63 62 62 62 62 62 62 63 63 63 63 63 62 62 62 62 62 61 61 61 61 61 60 60 60 60 60 59 59 59 59 59 59 59 60 59
65 65 65 65 64 64 64 64 64 64 64 64 63 63 62 62 62 62 62 61 61 60 59 59 58 58 58 58 57 56 56 56 55 55 55 55 55 54 54 54 53 52 51 51 50 49 49 50 50 51 52 53 54 54 57 59 60 61 63 63 64 65 65 65 64 63 63 62 62 61 61 61 61 62 62 63 63 63 63 63 62 62 62 62 62 61 61 61 61 61 60 60 60 60 59 59 59 59 59 59 59 59 59
65 64 64 64 64 64 64 64 64 63 63 63 63 63 62 62 62 62 62 61 61 60 59 58 58 58 58 58 57 57 55 55 55 55 54 55 55 55 55 54 54 53 52 52 50 50 49 49 50 50 50 51 51 52 53 56 58 59 61 62 63 64 65 64 64 63 62 62 62 61 61 60 60 61 62 62 63 63 63 63 63 62 62 62 62 62 62 61 61 61 61 61 60 60 59 59 59 59 59 59 59 59 59
64 64 64 64 64 64 64 63 63 63 63 63 63 63 62 62 62 62 61 61 61 61 60 59 59 59 58 58 57 57 56 56 55 55 54 54 54 55 55 55 54 54 53 52 51 51 50 50 50 50 50 50 50 50 50 53 55 57 59 60 62 63 63 63 63 63 62 61 61 61 60 60 60 60 61 62 62 63 63 63 63 62 62 61 62 62 62 62 62 62 62 61 61 60 60 59 59 59 59 58 58 58 58
64 63 63 63 63 63 63 63 63 63 63 63 63 62 62 62 61 61 61 61 61 60 59 59 58 58 58 57 57 57 57 56 56 55 55 54 54 54 55 55 54 54 53 52 52 52 51 50 50 50 50 49 49 48 48 50 53 55 57 58 60 61 62 63 63 62 61 61 61 60 60 59 59 59 60 60 61 62 63 63 63 63 62 62 61 62 62 62 62 62 63 62 62 61 60 60 60 59 59 59 59 58 58
63 63 63 63 63 63 63 63 63 63 63 63 62 62 62 62 61 61 61 60 60 59 58 58 58 58 58 57 57 57 57 57 57 57 56 55 54 54 54 54 54 54 53 52 52 52 52 51 50 50 50 49 49 48 48 48 51 54 55 56 58 59 61 62 62 62 61 61 60 60 60 59 59 59 59 59 60 61 62 62 63 63 62 62 62 62 62 62 63 63 63 63 63 62 61 61 61 61 60 60 59 59 59
63 63 63 63 63 63 63 63 63 63 63 63 63 62 62 62 62 61 61 60 60 59 59 59 59 58 58 58 57 57 57 57 57 57 57 56 54 54 54 54 54 54 53 52 52 51 51 51 50 50 50 49 48 48 47 47 49 51 54 55 56 58 59 61 61 62 61 61 61 61 60 60 59 59 58 59 59 59 60 61 61 62 62 62 62 62 62 63 63 64 64 64 63 63 63 63 63 62 61 61 61 61 60
63 63 63 63 63 63 62 62 62 62 62 63 63 62 62 62 62 62 61 61 61 60 59 59 59 58 58 58 57 57 57 57 57 57 57 57 56 55 54 54 54 54 53 52 52 51 51 51 50 50 50 49 48 48 47 47 47 49 52 54 55 56 58 59 61 61 62 62 61 61 61 60 59 59 58 58 58 59 59 59 60 60 60 61 61 62 63 63 63 63 64 64 64 63 64 64 63 63 62 62 62 62 62
62 62 62 63 63 63 62 62 62 62 62 63 63 63 62 62 62 62 62 61 61 60 60 59 59 59 58 58 57 56 56 56 57 57 57 57 56 55 54 54 54 54 53 52 52 52 51 51 51 50 50 50 49 48 48 47 46 47 50 52 54 55 56 58 59 61 62 62 62 61 61 61 60 59 59 59 59 59 59 59 59 59 59 59 61 62 63 63 63 63 63 63 64 64 64 64 64 63 63 63 63 63 63
62 62 62 63 63 63 62 62 62 62 62 62 63 62 62 62 62 62 61 60 59 58 58 58 58 58 58 57 56 56 55 55 56 57 57 57 56 55 54 54 53 53 53 53 53 53 52 51 51 51 50 50 49 49 48 48 47 47 47 50 51 53 55 56 58 59 61 61 61 61 61 61 61 60 59 59 59 59 59 59 58 58 58 59 59 60 63 63 63 63 63 63 64 64 64 64 64 63 63 63 63 63 63
62 62 62 62 62 62 62 62 62 62 61 62 62 62 61 61 61 60 60 59 58 57 56 56 56 56 56 56 56 55 54 54 54 55 56 57 56 55 54 54 54 53 53 53 53 53 52 51 51 51 51 50 50 49 49 48 48 47 47 50 51 52 54 55 57 59 60 61 61 61 61 61 61 61 60 60 59 59 59 58 58 58 58 58 58 59 61 63 64 64 63 64 64 64 64 64 64 64 64 64 64 64 64
62 62 62 62 62 62 62 62 62 62 61 61 61 61 61 60 60 59 59 59 59 58 56 56 56 56 56 57 57 57 55 55 54 55 55 56 55 54 54 54 54 53 54 54 53 52 52 52 51 51 51 51 50 50 49 48 48 47 47 47 49 50 52 54 55 58 59 60 61 61 60 61 62 62 61 61 60 59 59 59 58 58 57 57 57 58 60 62 64 64 64 64 64 65 64 64 64 64 64 64 64 64 64
62 62 62 62 62 62 61 61 61 61 61 61 60 60 60 59 59 59 59 59 59 58 57 57 57 58 57 57 57 57 56 56 56 55 55 55 55 55 55 54 54 54 54 54 53 53 52 52 52 52 52 51 50 50 50 49 48 47 47 46 47 48 49 49 51 54 57 59 60 60 60 61 61 62 62 62 61 60 59 59 58 58 57 57 57 57 58 61 63 64 64 64 64 64 64 64 64 65 65 65 64 64 64
62 61 61 61 61 61 61 61 61 61 60 60 60 60 59 59 59 59 59 59 59 58 58 58 58 58 58 57 57 57 56 56 56 56 56 55 55 55 55 55 54 54 54 54 54 54 54 54 54 53 53 52 51 51 50 49 48 48 47 46 46 46 46 47 47 49 52 56 58 59 60 60 61 62 63 62 62 61 59 59 58 57 57 57 57 57 57 59 60 62 63 63 63 63 63 63 63 63 63 64 63 63 62
61 61 61 60 60 60 60 60 60 60 60 60 59 59 59 59 59 59 58 58 58 58 58 58 57 57 57 56 56 56 57 56 56 56 56 56 56 56 56 56 55 55 55 55 55 55 55 55 54 54 54 53 53 52 51 50 50 49 48 47 46 46 46 46 46 47 49 51 54 56 59 60 61 61 62 63 62 61 60 59 58 57 56 57 57 57 56 57 57 58 59 59 60 60 59 59 59 59 59 60 60 60 59
61 60 60 60 60 60 60 60 60 60 60 59 59 59 59 59 59 58 58 58 58 58 58 58 57 57 57 56 56 56 56 56 55 56 55 56 56 56 56 56 56 56 56 56 56 56 56 56 55 55 55 54 54 53 52 52 51 50 49 48 47 47 46 46 47 47 47 49 50 53 57 59 60 61 62 63 62 62 60 59 59 58 57 57 56 56 56 55 55 55 55 56 56 56 56 56 56 55 55 57 58 58 58
61 60 60 60 60 60 60 60 60 60 60 59 59 59 59 59 59 58 58 58 58 58 58 58 58 57 57 57 56 56 55 55 55 56 56 56 56 56 55 56 56 56 56 57 57 56 56 56 56 56 56 55 54 54 54 53 53 52 50 50 49 48 48 48 48 48 47 47 48 50 53 57 59 61 62 63 63 62 61 61 60 59 58 57 55 55 55 55 55 55 55 55 55 55 55 55 55 56 56 57 58 59 59
61 61 60 60 60 60 60 61 61 60 60 60 59 59 59 59 59 59 58 58 58 57 57 58 58 57 57 57 56 56 56 55 55 56 56 56 56 56 55 56 56 56 56 57 57 57 57 57 57 56 56 55 54 54 54 54 54 53 53 52 51 50 50 50 49 48 48 47 48 49 51 56 59 61 62 63 63 63 62 62 62 61 59 57 55 54 55 55 56 56 56 55 55 55 55 55 56 57 58 58 59 59 59
61 61 61 61 60 60 61 61 61 60 60 60 59 59 59 59 59 59 59 59 58 58 57 57 57 57 57 57 56 56 56 56 56 56 56 57 56 56 56 56 56 57 56 56 57 56 56 57 57 57 56 55 54 55 55 54 54 54 54 54 53 52 51 51 50 49 49 48 48 49 50 54 58 61 62 62 63 63 62 62 62 62 60 57 55 55 55 56 56 57 57 56 56 56 56 57 58 58 59 59 59 59 59
62 61 61 61 61 61 61 61 61 61 60 60 60 59 59 59 59 59 59 59 58 58 57 57 57 57 57 57 56 56 56 56 56 56 56 56 57 57 57 57 57 57 56 56 56 56 56 56 56 56 56 55 55 56 56 55 54 54 54 54 54 53 53 52 51 50 50 49 49 50 50 52 55 59 61 62 62 61 61 61 61 62 61 59 57 56 57 57 58 58 58 58 58 58 58 58 59 59 59 59 59 59 59
62 62 62 61 61 61 61 61 61 61 61 60 60 59 59 59 59 59 59 59 59 58 58 57 57 57 57 57 56 56 56 56 56 56 56 56 57 57 57 57 56 56 56 56 56 55 55 55 56 56 56 55 55 56 56 56 55 54 54 53 52 52 52 52 52 51 50 50 50 50 51 53 54 57 60 60 60 60 60 61 61 62 62 61 59 59 59 59 59 59 59 59 59 59 59 59 59 59 59 58 58 58 58
62 62 62 61 61 61 61 61 61 61 61 60 60 60 59 59 59 59 59 59 59 58 58 58 57 57 57 57 57 57 57 57 57 57 57 56 56 57 58 57 56 56 56 56 55 55 55 55 55 54 54 55 55 55 55 56 56 55 53 52 50 50 50 50 50 50 50 50 50 51 53 54 55 57 58 58 58 58 59 60 61 62 62 62 61 60 60 60 60 59 59 59 59 59 58 58 58 58 58 58 58 58 58
62 62 62 62 61 61 61 61 61 61 61 60 60 60 59 59 59 59 59 59 59 58 59 58 57 57 57 57 57 57 57 57 57 57 57 56 56 57 58 57 56 55 54 54 54 54 55 54 54 54 54 54 54 54 54 54 54 53 52 50 49 48 49 49 49 50 51 51 51 52 53 54 55 56 57 57 57 58 59 59 60 61 62 62 62 61 61 61 60 60 59 59 58 58 58 58 58 58 58 58 58 58 58
63 63 62 62 62 61 61 60 60 61 60 60 60 60 59 59 59 59 59 59 59 59 59 58 58 57 57 57 57 57 57 57 58 58 58 57 57 56 56 56 56 55 54 54 54 54 54 53 53 53 52 52 52 52 52 52 52 51 50 49 48 47 47 48 48 49 50 51 52 53 54 54 55 56 56 56 56 57 58 58 59 59 60 60 61 61 61 61 60 59 59 58 58 58 57 58 58 58 58 58 58 58 58
63 63 62 62 62 61 61 60 60 60 60 60 60 60 60 59 59 59 59 59 59 59 59 59 58 58 57 57 57 57 57 57 58 58 58 58 58 58 57 56 56 55 55 54 54 54 53 53 52 52 51 51 51 50 50 50 50 49 48 48 47 47 46 47 48 49 51 52 53 53 54 54 55 55 55 55 55 56 56 56 57 57 58 59 59 59 59 60 59 59 59 58 58 58 57 58 58 58 58 58 58 58 57
63 63 63 62 61 61 61 60 60 60 60 60 60 60 60 59 59 59 59 59 59 59 59 59 59 58 57 57 57 57 57 57 58 58 58 58 58 58 58 57 57 56 56 55 54 54 53 52 52 51 50 50 50 49 49 49 48 47 47 47 46 46 46 47 49 50 52 52 53 54 54 54 55 55 54 54 54 54 54 54 54 55 56 56 57 57 58 59 59 59 58 58 57 57 58 58 58 58 58 58 58 57 57
63 63 63 62 61 61 61 60 60 60 60 60 60 60 60 59 59 59 59 59 59 59 58 58 58 58 59 58 58 58 57 57 58 58 58 57 57 57 57 57 57 57 56 55 55 55 54 54 53 52 50 50 49 49 48 48 47 47 46 46 45 46 46 48 50 51 52 53 53 54 54 54 54 54 53 53 53 53 53 53 53 53 53 53 53 54 55 56 57 58 58 57 57 57 57 57 57 58 58 58 57 57 57
63 63 62 62 61 61 61 60 60 60 60 60 59 59 59 59 59 59 59 59 59 59 58 58 58 58 58 58 58 57 56 58 58 59 58 55 54 54 56 57 57 56 55 55 56 57 56 55 54 52 51 50 49 48 48 47 47 46 45 45 45 46 47 48 50 51 53 53 53 53 53 53 53 52 52 51 51 51 51 51 51 51 51 51 51 52 53 54 54 55 57 56 56 56 56 56 56 57 57 57 57 57 57
63 63 62 62 61 61 60 60 60 60 60 59 59 59 59 59 59 59 59 59 59 59 59 58 58 58 57 57 58 57 56 58 59 59 58 55 54 54 56 57 57 56 54 54 54 55 56 55 54 53 52 50 49 48 48 47 46 46 45 45 46 46 47 49 50 51 52 53 53 53 52 51 50 50 50 50 50 50 50 50 50 50 50 50 50 50 51 52 52 53 54 55 56 56 55 55 56 56 57 57 57 57 57
63 62 62 62 61 60 60 60 59 59 60 59 59 59 59 59 59 59 59 59 59 59 59 59 59 58 58 58 58 58 57 58 58 59 58 56 56 57 57 55 54 52 50 53 54 54 54 54 53 52 52 50 49 48 48 47 46 46 46 46 46 46 47 49 50 51 52 52 52 52 51 50 49 49 49 49 49 49 49 49 49 49 49 49 49 49 50 50 51 52 52 53 54 54 55 55 55 55 56 56 57 56 57
62 62 61 61 61 60 60 59 59 59 59 59 59 59 59 59 59 59 59 59 59 59 59 59 59 58 58 58 58 58 57 58 58 59 58 58 58 58 56 54 52 52 51 53 54 54 54 53 52 51 53 51 50 49 47 47 47 46 46 46 46 46 47 48 50 51 51 51 51 50 50 49 48 48 48 48 48 48 48 48 48 48 48 48 48 49 50 50 51 51 51 52 53 54 55 55 55 55 55 56 56 56 56
61 61 61 61 60 60 59 59 59 59 59 59 59 59 59 59 59 59 59 59 59 59 59 59 59 59 59 58 58 58 58 57 57 57 58 57 58 59 57 55 54 54 54 54 54 54 54 52 51 53 54 51 50 49 48 47 47 47 47 46 46 46 47 48 49 50 50 50 50 49 48 48 48 47 47 47 47 47 47 47 47 47 47 48 48 49 49 50 50 50 51 52 53 53 54 55 55 55 55 55 56 56 56
61 60 60 60 60 59 59 59 59 59 59 59 59 59 59 59 59 59 59 59 59 59 59 59 59 59 59 59 59 58 58 58 58 58 58 58 58 58 57 57 56 55 54 54 54 53 52 50 52 54 54 53 50 49 48 47 47 47 47 46 46 46 46 47 48 49 50 50 49 48 47 47 47 47 47 46 46 46 46 46 46 46 47 47 48 48 49 50 50 50 51 52 53 54 54 55 55 54 55 55 56 56 56
60 60 60 60 59 59 59 59 59 58 59 59 59 59 59 59 59 58 59 59 59 59 59 59 59 59 59 60 59 59 58 58 58 58 58 58 58 58 57 57 57 58 57 56 55 54 52 53 54 55 54 55 53 51 50 48 47 47 46 46 46 46 46 46 47 48 49 49 49 48 47 46 46 46 46 46 46 45 45 45 46 46 47 48 48 49 50 50 51 51 52 52 53 54 55 54 54 54 55 56 56 56 56
60 60 59 59 59 59 59 59 59 58 59 59 59 59 59 58 58 58 59 59 59 59 59 59 59 59 60 60 60 59 58 58 59 58 57 58 58 58 58 57 57 57 58 58 58 57 56 56 56 56 56 56 56 55 52 49 48 47 46 46 46 46 46 46 46 47 48 48 48 47 46 46 46 46 45 45 45 45 45 45 46 47 47 48 48 49 50 51 52 52 53 53 54 54 54 54 54 55 56 56 56 56 57
60 60 59 59 59 59 59 59 59 59 59 59 59 59 58 58 58 58 59 59 59 59 59 59 59 60 61 61 60 59 59 59 59 59 59 59 59 58 58 58 58 58 58 57 57 58 59 59 59 59 58 58 58 57 56 52 49 48 47 47 46 46 46 46 46 46 46 46 46 46 46 46 45 45 45 45 45 45 45 46 46 47 47 48 49 49 50 50 51 52 53 54 54 55 55 55 56 56 57 57 57 57 58
60 60 59 59 59 59 59 59 59 59 59 59 59 59 59 59 59 59 59 59 59 59 59 60 60 61 62 61 61 60 60 59 59 59 60 59 59 58 57 57 58 58 58 57 57 58 59 60 60 60 59 59 58 58 58 55 52 50 48 48 47 46 45 45 45 45 45 45 45 45 45 45 45 45 45 45 45 45 45 46 46 47 47 48 48 49 50 50 51 52 53 54 55 56 56 56 57 57 58 57 58 58 59